Regional Weather Roundup
Issued by NWS

Home | Current Version | Previous Version | Text Only | Print | Product List | Glossary Off
Versions: 1 2 3 4 5 6 7 8 9 10 11 12 13 14 15 16 17 18 19 20 21 22 23 24 25 26 27 28 29 30 31 32 33 34 35 36 37 38 39 40 41 42 43 44 45 46 47 48 49 50

347
ASUS44 KLIX 190701
RWRLA
LOUISIANA WEATHER ROUNDUP
NATIONAL WEATHER SERVICE NEW ORLEANS LA
200 AM CDT SAT APR 19 2014

NOTE: "FAIR" INDICATES FEW OR NO CLOUDS BELOW 12,000 FEET WITH NO
      SIGNIFICANT WEATHER AND/OR OBSTRUCTIONS TO VISIBILITY.
      SKY/WX - SKY CONDITION AND SIGNIFICANT WEATHER.
      TMP - AIR TEMPERATURE.    DP   - DEWPOINT TEMPERATURE.
      RH  - RELATIVE HUMIDITY.  PRES - PRESSURE.
      HX  - HEAT INDEX.         WCI  - WIND CHILL INDEX.

*  THESE STATIONS ARE NOT NWS OR FAA STATIONS AND ARE NOT UNDER
   NWS QUALITY CONTROL.

LAZ040-048-061>063-065-066-069-190800-
SOUTHEAST LOUISIANA

CITY           SKY/WX    TMP DP  RH WIND       PRES   REMARKS
N.O. AUDUBON     N/A     61  53  76 MISG        N/A
N.O. INTL ARPT PTCLDY    61  54  77 NE17      30.12F
N.O. LAKEFRONT CLEAR     61  55  81 NE22      30.13F
N.O. DOWNTOWN* FAIR      61  50  67 N10       30.12F
SLIDELL        CLEAR     56  52  86 N6        30.13F
BATON ROUGE    CLEAR     58  53  84 NE5       30.13F
BOOTHVILLE     CLOUDY    61  54  77 N12G20    30.10F
BELLE CHASSE   CLEAR     59  52  77 NE10      30.11F
BOGALUSA*        N/A     54  51  90 N6        30.17F
GALLIANO*      NOT AVBL
NEW ROADS*     NOT AVBL
GONZALES*      FAIR      60  56  87 CALM      30.13S
HAMMOND*       NOT AVBL
HOUMA*         NOT AVBL
PORT FOURCHON* MOSUNNY   63  57  82 NE10      30.13S

$$

LAZ041-044-053-054-190800-
SOUTHWEST LOUISIANA

CITY           SKY/WX    TMP DP  RH WIND       PRES   REMARKS
LAKE CHARLES   CLEAR     60  56  86 N3        30.13S
LAFAYETTE      CLEAR     60  58  92 E3        30.13S
PATTERSON      CLEAR     59  55  88 NE5       30.15F
SALT POINT       N/A     62  58  86 CALM      30.11F
NEW IBERIA     CLEAR     61  58  90 E5        30.13F
CHENAULT AIRPK NOT AVBL

$$

LAZ027-028-190800-
CENTRAL LOUISIANA

CITY           SKY/WX    TMP DP  RH WIND       PRES   REMARKS
FORT POLK      CLEAR     58  54  86 NE5       30.14S
ALEXANDRIA INT CLEAR     57  55  93 SW5       30.13S
ALEXANDRIA     FOG       55  53  93 CALM      30.14S VSB 1/2

$$

LAZ001-002-190800-
NORTHWEST LOUISIANA

CITY           SKY/WX    TMP DP  RH WIND       PRES   REMARKS
SHREVEPORT     MOCLDY    56  52  86 CALM      30.15F
BARKSDALE AFB  NOT AVBL
DTN SHREVEPORT CLEAR     55  53  93 CALM      30.16F

$$

LAZ014-016-190800-
NORTHEAST LOUISIANA

CITY           SKY/WX    TMP DP  RH WIND       PRES   REMARKS
MONROE         CLEAR     59  53  80 E5        30.16F
TALLULAH       CLEAR     59  55  87 E7        30.17F

$$




USA.gov is the U.S. government's official web portal to all federal, state and local government web resources and services.